Kimball, NE

10:21 AM MDT on September 29, 2016 (GMT -0600)
Kimball Municipal-Arraj

Weather History for KIBM - May, 2014

Change the Weather History Date:

Friday, May 9, 2014

  Actual Average (KSNY) Record (KSNY)
Temperature  
Mean Temperature 49 °F 56 °F  
Max Temperature 61 °F 70 °F 90 °F (1962)
Min Temperature 37 °F 41 °F 16 °F (2002)
Degree Days  
Heating Degree Days 16 10  
Month to date heating degree days 99  
Since 1 July heating degree days 6011  
Cooling Degree Days 0 0  
Month to date cooling degree days 0  
Year to date cooling degree days 1  
Moisture  
Dew Point 36 °F    
Average Humidity 64    
Maximum Humidity 93    
Minimum Humidity 32    
Precipitation  
Precipitation 0.00 in 0.09 in 3.11 in (2015)
Month to date precipitation 0.90  
Year to date precipitation 4.57  
Sea Level Pressure  
Sea Level Pressure 29.84 in    
Wind  
Wind Speed 10 mph (WSW)    
Max Wind Speed 20 mph    
Max Gust Speed 28 mph    
Visibility 10 miles    
Events Rain    
T = Trace of Precipitation, MM = Missing Value Source: NWS Daily Summary

Daily Weather History Graph

Daily Weather History Graph

Search for Another Location

Airport or City:

Trip Planner

Search our weather history database for the weather conditions in past years. The results will help you decide how hot, cold, wet, or windy it might be!

Date:

Astronomy

May. 09, 2014 Rise Set
Actual Time 6:42 AM CDT 9:00 PM CDT
Civil Twilight 6:11 AM CDT 9:31 PM CDT
Nautical Twilight 5:33 AM CDT 10:09 PM CDT
Astronomical Twilight 4:52 AM CDT 10:51 PM CDT
Moon 3:57 PM CDT (5/9) 3:49 AM CDT (5/9)
Length of Visible Light 15h 19m
Length of Day
14h 17m
Waxing Gibbous, 74% of the Moon is Illuminated
May 9
Waxing Gibbous
May 14
Full
May 21
Last Quarter
May 28
New
Jun 5
First Quarter

Hourly Weather History & Observations

Time (CDT) Temp. Windchill Dew Point Humidity Pressure Visibility Wind Dir Wind Speed Gust Speed Precip Events Conditions
12:15 AM 38.3 °F 35.9 °F 35.6 °F 90% 29.93 in 10.0 mi South 3.5 mph - N/A   Mostly Cloudy
12:35 AM 38.5 °F 36.1 °F 36.0 °F 91% 29.93 in 10.0 mi South 3.5 mph - N/A   Overcast
12:55 AM 37.8 °F 32.5 °F 35.2 °F 91% 29.91 in 10.0 mi SSE 6.9 mph - N/A   Mostly Cloudy
1:15 AM 38.1 °F 32.9 °F 36.0 °F 92% 29.91 in 10.0 mi SSW 6.9 mph - N/A   Scattered Clouds
1:35 AM 38.7 °F 34.3 °F 36.3 °F 91% 29.91 in 10.0 mi SSW 5.8 mph - N/A   Scattered Clouds
1:55 AM 37.0 °F 32.4 °F 34.7 °F 91% 29.91 in 10.0 mi SSW 5.8 mph - N/A   Scattered Clouds
2:15 AM 37.9 °F 32.1 °F 36.0 °F 93% 29.90 in 10.0 mi SW 8.1 mph - N/A   Clear
2:35 AM 38.3 °F 32.5 °F 35.6 °F 90% 29.89 in 10.0 mi WSW 8.1 mph - N/A   Scattered Clouds
2:55 AM 39.0 °F 32.8 °F 36.1 °F 89% 29.89 in 10.0 mi WSW 9.2 mph - N/A   Scattered Clouds
3:15 AM 39.2 °F 31.6 °F 36.1 °F 89% 29.89 in 10.0 mi WSW 12.7 mph - N/A   Clear
3:35 AM 39.2 °F 31.6 °F 36.0 °F 88% 29.88 in 10.0 mi WSW 12.7 mph - N/A   Clear
3:55 AM 39.2 °F 31.2 °F 36.1 °F 89% 29.89 in 10.0 mi WSW 13.8 mph - N/A   Scattered Clouds
4:15 AM 39.6 °F 31.3 °F 36.5 °F 89% 29.89 in 10.0 mi WSW 15.0 mph - N/A   Scattered Clouds
4:35 AM 39.2 °F 32.0 °F 36.3 °F 89% 29.89 in 10.0 mi West 11.5 mph - N/A   Clear
4:55 AM 38.7 °F 30.9 °F 35.8 °F 89% 29.87 in 10.0 mi WSW 12.7 mph - N/A   Clear
5:35 AM 38.3 °F 30.9 °F 35.1 °F 88% 29.87 in 10.0 mi WSW 11.5 mph - N/A   Clear
5:55 AM 37.9 °F 31.5 °F 34.9 °F 89% 29.86 in 10.0 mi WSW 9.2 mph - N/A   Clear
6:15 AM 37.9 °F 30.9 °F 35.1 °F 89% 29.86 in 10.0 mi WSW 10.4 mph - N/A   Clear
6:35 AM 37.8 °F 31.3 °F 34.9 °F 89% 29.86 in 7.0 mi WSW 9.2 mph - N/A   Clear
6:55 AM 37.0 °F 31.6 °F 34.3 °F 90% 29.85 in 4.0 mi WSW 6.9 mph - N/A   Clear
7:15 AM 37.4 °F 31.4 °F 34.5 °F 89% 29.85 in 5.0 mi WSW 8.1 mph - N/A   Clear
7:35 AM 38.3 °F 31.9 °F 34.9 °F 87% 29.85 in 7.0 mi West 9.2 mph - N/A   Clear
7:55 AM 39.6 °F 34.0 °F 35.8 °F 86% 29.85 in 5.0 mi West 8.1 mph - N/A   Clear
8:15 AM 41.9 °F 37.5 °F 36.3 °F 81% 29.86 in 10.0 mi West 6.9 mph - N/A   Clear
8:35 AM 44.8 °F 41.6 °F 37.0 °F 74% 29.86 in 10.0 mi West 5.8 mph - N/A   Clear
8:55 AM 46.6 °F - 37.9 °F 72% 29.86 in 10.0 mi WNW 8.1 mph - N/A   Clear
9:15 AM 49.3 °F - 36.9 °F 62% 29.86 in 10.0 mi West 10.4 mph - N/A   Clear
9:35 AM 51.8 °F - 33.3 °F 49% 29.86 in 10.0 mi West 17.3 mph 25.3 mph N/A   Clear
9:55 AM 52.7 °F - 33.6 °F 48% 29.86 in 10.0 mi West 18.4 mph - N/A   Clear
10:15 AM 54.9 °F - 35.8 °F 49% 29.86 in 10.0 mi West 17.3 mph 23.0 mph N/A   Clear
10:35 AM 56.1 °F - 34.7 °F 45% 29.85 in 10.0 mi West 19.6 mph 24.2 mph N/A   Clear
10:55 AM 56.5 °F - 36.3 °F 47% 29.85 in 10.0 mi WSW 17.3 mph - N/A   Clear
11:15 AM 57.0 °F - 33.8 °F 42% 29.85 in 10.0 mi WSW 19.6 mph 25.3 mph N/A   Clear
11:35 AM 58.1 °F - 35.1 °F 42% 29.85 in 10.0 mi WSW 17.3 mph 23.0 mph N/A   Clear
11:55 AM 58.6 °F - 33.8 °F 39% 29.85 in 10.0 mi WSW 18.4 mph 23.0 mph N/A   Clear
12:15 PM 59.2 °F - 33.3 °F 38% 29.84 in 10.0 mi SW 16.1 mph - N/A   Clear
12:35 PM 60.3 °F - 30.9 °F 33% 29.83 in 10.0 mi SW 18.4 mph 27.6 mph N/A   Clear
12:55 PM 59.0 °F - 29.3 °F 32% 29.83 in 10.0 mi WSW 10.4 mph - N/A   Scattered Clouds
1:15 PM 60.3 °F - 30.4 °F 32% 29.82 in 10.0 mi WSW 19.6 mph 23.0 mph N/A   Mostly Cloudy
1:35 PM 60.3 °F - 31.1 °F 33% 29.82 in 10.0 mi WSW 9.2 mph 23.0 mph N/A   Scattered Clouds
1:55 PM 59.0 °F - 31.6 °F 36% 29.81 in 10.0 mi WSW 12.7 mph 17.3 mph N/A   Mostly Cloudy
2:15 PM 60.6 °F - 32.0 °F 34% 29.80 in 10.0 mi WSW 12.7 mph 19.6 mph N/A   Scattered Clouds
2:35 PM 60.6 °F - 31.6 °F 34% 29.80 in 10.0 mi SW 11.5 mph - N/A   Clear
2:55 PM 60.1 °F - 30.9 °F 33% 29.79 in 10.0 mi SW 13.8 mph 19.6 mph N/A   Clear
3:15 PM 61.0 °F - 32.4 °F 34% 29.79 in 10.0 mi WSW 15.0 mph 18.4 mph N/A   Clear
3:35 PM 60.8 °F - 32.4 °F 34% 29.79 in 10.0 mi SW 16.1 mph - N/A   Clear
3:55 PM 60.3 °F - 32.9 °F 36% 29.78 in 10.0 mi SW 13.8 mph - N/A   Clear
4:15 PM 60.1 °F - 34.2 °F 38% 29.78 in 10.0 mi SW 11.5 mph - N/A   Scattered Clouds
4:35 PM 59.4 °F - 32.9 °F 37% 29.78 in 10.0 mi SW 10.4 mph - N/A   Mostly Cloudy
4:55 PM 59.4 °F - 33.8 °F 38% 29.77 in 10.0 mi SW 11.5 mph 16.1 mph N/A   Scattered Clouds
5:15 PM 60.8 °F - 35.1 °F 38% 29.77 in 10.0 mi SW 11.5 mph 17.3 mph N/A   Scattered Clouds
5:35 PM 60.3 °F - 33.1 °F 36% 29.77 in 10.0 mi WSW 10.4 mph - N/A   Scattered Clouds
5:55 PM 60.8 °F - 33.6 °F 36% 29.77 in 10.0 mi WSW 13.8 mph - N/A   Scattered Clouds
6:15 PM 60.8 °F - 33.3 °F 36% 29.77 in 10.0 mi West 11.5 mph 19.6 mph N/A   Scattered Clouds
6:35 PM 60.1 °F - 32.7 °F 36% 29.77 in 10.0 mi West 11.5 mph - N/A   Mostly Cloudy
6:55 PM 55.4 °F - 40.1 °F 56% 29.78 in 10.0 mi NNW 13.8 mph - N/A Rain Light Rain
7:15 PM 53.6 °F - 41.9 °F 65% 29.79 in 10.0 mi NNW 10.4 mph - N/A   Mostly Cloudy
7:35 PM 53.6 °F - 41.4 °F 63% 29.79 in 10.0 mi NNW 5.8 mph - N/A   Scattered Clouds
7:55 PM 54.9 °F - 40.3 °F 58% 29.79 in 10.0 mi NNW 4.6 mph - N/A   Scattered Clouds
8:15 PM 54.7 °F - 40.5 °F 59% 29.79 in 10.0 mi NNW 3.5 mph - N/A   Clear
8:35 PM 52.7 °F - 41.0 °F 64% 29.79 in 10.0 mi Calm Calm - N/A   Clear
8:55 PM 51.4 °F - 41.4 °F 68% 29.80 in 10.0 mi WNW 3.5 mph - N/A   Scattered Clouds
9:15 PM 51.4 °F - 42.1 °F 70% 29.83 in 10.0 mi WSW 17.3 mph 25.3 mph N/A Rain Rain
9:35 PM 49.6 °F - 42.1 °F 75% 29.82 in 10.0 mi SW 11.5 mph - N/A   Mostly Cloudy
9:55 PM 49.1 °F - 41.2 °F 74% 29.83 in 10.0 mi SW 15.0 mph - N/A   Scattered Clouds
10:15 PM 48.6 °F - 41.5 °F 77% 29.82 in 10.0 mi SSW 9.2 mph - N/A   Scattered Clouds
10:35 PM 47.5 °F - 41.4 °F 79% 29.82 in 10.0 mi SW 6.9 mph - N/A   Clear
10:55 PM 46.8 °F - 40.5 °F 79% 29.83 in 10.0 mi WSW 8.1 mph - N/A   Clear
11:15 PM 46.8 °F - 40.3 °F 78% 29.83 in 10.0 mi WSW 9.2 mph - N/A   Clear
11:35 PM 47.1 °F - 39.2 °F 74% 29.83 in 10.0 mi WSW 9.2 mph - N/A   Clear
11:55 PM 47.7 °F - 39.2 °F 72% 29.82 in 10.0 mi WSW 8.1 mph - N/A   Scattered Clouds